Regional Weather Roundup
Issued by NWS Nashville, TN

Home | Current Version | Previous Version | Text Only | Print | Product List | Glossary On
Versions: 1 2 3 4 5 6 7 8 9 10 11 12 13 14 15 16 17 18 19 20 21 22 23 24 25 26 27
000
ASUS44 KOHX 091010
RWROHX
MIDDLE TENNESSEE HOURLY WEATHER ROUNDUP
NATIONAL WEATHER SERVICE NASHVILLE TN
400 AM CST FRI DEC 09 2016

NOTE: "FAIR" INDICATES FEW OR NO CLOUDS BELOW 12,000 FEET WITH
NO SIGNIFICANT WEATHER AND/OR OBSTRUCTIONS TO VISIBILITY.

* THESE REPORTS ARE NOT UNDER NWS QUALITY CONTROL AND MAY NOT
  REPORT WEATHER SUCH AS PRECIPITATION AND FOG.


TNZ005>011-023>034-057-059-062>066-078-080-091100
...NORTHERN MIDDLE TENNESSEE...

CITY           SKY/WX    TMP DP  RH WIND       PRES   REMARKS
CLARKSVILLE    CLOUDY    22  15  75 NW6       30.56F WCI  14
CROSSVILLE     CLOUDY    21  15  78 NW12      30.42R WCI   9
GALLATIN       CLOUDY    27  18  69 N8        30.57S WCI  18
NASHVILLE      CLOUDY    25  15  66 NW7       30.55S WCI  17
PORTLAND       CLOUDY    25  18  74 N8        30.53S WCI  16
SMYRNA         CLOUDY    26  17  68 N10       30.56S WCI  16
SPRINGFIELD    CLOUDY    25  18  74 N5        30.53F WCI  19
WEST NASHVILLE CLOUDY    21  14  73 NW3       30.56S
$$
TNZ056-058-060-061-075>077-079-093>097-091100
...SOUTHERN MIDDLE TENNESSEE...

CITY           SKY/WX    TMP DP  RH WIND       PRES   REMARKS
COLUMBIA       CLEAR     21  16  79 N3        30.53S
FAYETTEVILLE   CLEAR     25  16  68 N7G13     30.50S WCI  17
MCMINNVILLE    MOCLDY    21  16  79 N7          N/A  WCI  13
MURFREESBORO   CLOUDY    25  16  68 N6        30.53S WCI  18
SHELBYVILLE    PTCLDY    21  16  79 N5        30.53R WCI  15
TULLAHOMA      CLEAR     19  12  73 N5        30.49S WCI  13
WINCHESTER     CLEAR     21  16  79 N3        30.49S
$$


...KEY TO REMARKS...
VSB - VISIBILITY IN MILES
WCI - WIND CHILL INDEX
HX  - HEAT INDEX





USA.gov is the U.S. government's official web portal to all federal, state and local government web resources and services.